Time,TemperatureF,DewpointF,PressureIn,WindDirection,WindDirectionDegrees,WindSpeedMPH,WindSpeedGustMPH,Humidity,HourlyPrecipIn,Conditions,Clouds,dailyrainin,SoftwareType,DateUTC
2013-05-28 00:00:00,43.7,32.3,30.28,NNE,22,0.0,0.0,64,0.00,,---,0.00,VWS V14.01,2013-05-28 04:00:00,
2013-05-28 00:01:00,43.7,32.3,30.28,NNE,22,0.0,0.0,64,0.00,,---,0.00,VWS V14.01,2013-05-28 04:01:00,
2013-05-28 00:06:00,43.5,32.5,30.28,NNE,22,0.0,0.0,65,0.00,,---,0.00,VWS V14.01,2013-05-28 04:06:00,
2013-05-28 00:11:00,43.5,32.5,30.28,NNE,22,0.0,0.0,65,0.00,,---,0.00,VWS V14.01,2013-05-28 04:11:00,
2013-05-28 00:16:00,43.1,32.2,30.28,NNE,22,0.0,0.0,65,0.00,,---,0.00,VWS V14.01,2013-05-28 04:16:00,
2013-05-28 00:21:00,42.9,32.3,30.29,NNE,22,0.0,0.0,66,0.00,,---,0.00,VWS V14.01,2013-05-28 04:21:00,
2013-05-28 00:26:00,42.6,32.0,30.29,NNE,22,0.0,0.0,66,0.00,,---,0.00,VWS V14.01,2013-05-28 04:26:00,
2013-05-28 00:31:00,42.6,32.0,30.29,NNE,22,0.0,0.0,66,0.00,,---,0.00,VWS V14.01,2013-05-28 04:31:00,
2013-05-28 00:36:00,42.4,31.9,30.29,NNE,22,0.0,0.0,66,0.00,,---,0.00,VWS V14.01,2013-05-28 04:36:00,
2013-05-28 00:41:00,42.0,31.5,30.28,NNE,22,0.0,0.0,66,0.00,,---,0.00,VWS V14.01,2013-05-28 04:41:00,
2013-05-28 00:46:00,42.0,31.5,30.28,NNE,22,0.0,0.0,66,0.00,,---,0.00,VWS V14.01,2013-05-28 04:46:00,
2013-05-28 00:51:00,41.7,31.2,30.28,NNE,22,0.0,0.0,66,0.00,,---,0.00,VWS V14.01,2013-05-28 04:51:00,
2013-05-28 00:56:00,41.7,31.6,30.29,NNE,22,0.0,0.0,67,0.00,,---,0.00,VWS V14.01,2013-05-28 04:56:00,
2013-05-28 01:01:00,41.5,31.4,30.29,NNE,22,0.0,0.0,67,0.00,,---,0.00,VWS V14.01,2013-05-28 05:01:00,
2013-05-28 01:06:00,41.3,31.2,30.29,NE,45,0.0,0.0,67,0.00,,---,0.00,VWS V14.01,2013-05-28 05:06:00,
2013-05-28 01:11:00,41.3,31.2,30.29,NE,45,0.0,0.0,67,0.00,,---,0.00,VWS V14.01,2013-05-28 05:11:00,
2013-05-28 01:16:00,41.0,31.3,30.29,NE,45,0.0,0.0,68,0.00,,---,0.00,VWS V14.01,2013-05-28 05:16:00,
2013-05-28 01:21:00,40.8,31.1,30.29,NE,45,0.0,0.0,68,0.00,,---,0.00,VWS V14.01,2013-05-28 05:21:00,
2013-05-28 01:26:00,40.8,31.1,30.29,NE,45,0.0,0.0,68,0.00,,---,0.00,VWS V14.01,2013-05-28 05:26:00,
2013-05-28 01:31:00,40.6,30.9,30.29,NE,45,0.0,0.0,68,0.00,,---,0.00,VWS V14.01,2013-05-28 05:31:00,
2013-05-28 01:36:00,40.6,30.9,30.29,NE,45,0.0,0.0,68,0.00,,---,0.00,VWS V14.01,2013-05-28 05:36:00,
2013-05-28 01:41:00,40.4,31.0,30.28,NE,45,0.0,0.0,69,0.00,,---,0.00,VWS V14.01,2013-05-28 05:41:00,
2013-05-28 01:46:00,40.2,30.9,30.28,NE,45,0.0,0.0,69,0.00,,---,0.00,VWS V14.01,2013-05-28 05:46:00,
2013-05-28 01:51:00,40.1,30.8,30.28,NE,45,0.0,0.0,69,0.00,,---,0.00,VWS V14.01,2013-05-28 05:51:00,
2013-05-28 01:56:00,39.9,30.6,30.28,NE,45,0.0,0.0,69,0.00,,---,0.00,VWS V14.01,2013-05-28 05:56:00,
2013-05-28 02:01:00,39.7,30.4,30.29,NE,45,0.0,0.0,69,0.00,,---,0.00,VWS V14.01,2013-05-28 06:01:00,
2013-05-28 02:06:00,39.5,30.2,30.28,NE,45,0.0,0.0,69,0.00,,---,0.00,VWS V14.01,2013-05-28 06:06:00,
2013-05-28 02:11:00,39.5,30.2,30.28,NE,45,0.0,0.0,69,0.00,,---,0.00,VWS V14.01,2013-05-28 06:11:00,
2013-05-28 02:16:00,39.3,30.0,30.28,NE,45,0.0,0.0,69,0.00,,---,0.00,VWS V14.01,2013-05-28 06:16:00,
2013-05-28 02:21:00,39.0,30.1,30.28,NE,45,0.0,0.0,70,0.00,,---,0.00,VWS V14.01,2013-05-28 06:21:00,
2013-05-28 02:26:00,39.0,30.1,30.28,NE,45,0.0,0.0,70,0.00,,---,0.00,VWS V14.01,2013-05-28 06:26:00,
2013-05-28 02:31:00,38.8,29.9,30.28,NE,45,0.0,0.0,70,0.00,,---,0.00,VWS V14.01,2013-05-28 06:31:00,
2013-05-28 02:36:00,38.8,29.9,30.28,NE,45,0.0,0.0,70,0.00,,---,0.00,VWS V14.01,2013-05-28 06:36:00,
2013-05-28 02:41:00,38.8,29.9,30.27,NE,45,0.0,0.0,70,0.00,,---,0.00,VWS V14.01,2013-05-28 06:41:00,
2013-05-28 02:46:00,38.4,29.5,30.27,NE,45,0.0,0.0,70,0.00,,---,0.00,VWS V14.01,2013-05-28 06:46:00,
2013-05-28 02:51:00,38.4,29.5,30.27,NE,45,0.0,0.0,70,0.00,,---,0.00,VWS V14.01,2013-05-28 06:51:00,
2013-05-28 02:56:00,38.3,29.4,30.27,NE,45,0.0,0.0,70,0.00,,---,0.00,VWS V14.01,2013-05-28 06:56:00,
2013-05-28 03:01:00,38.1,29.2,30.27,NE,45,0.0,0.0,70,0.00,,---,0.00,VWS V14.01,2013-05-28 07:01:00,
2013-05-28 03:06:00,37.9,29.4,30.27,NE,45,0.0,0.0,71,0.00,,---,0.00,VWS V14.01,2013-05-28 07:06:00,
2013-05-28 03:11:00,37.9,29.4,30.27,NE,45,0.0,0.0,71,0.00,,---,0.00,VWS V14.01,2013-05-28 07:11:00,
2013-05-28 03:16:00,37.9,29.4,30.27,NE,45,0.0,0.0,71,0.00,,---,0.00,VWS V14.01,2013-05-28 07:16:00,
2013-05-28 03:21:00,37.7,29.2,30.27,NE,45,0.0,0.0,71,0.00,,---,0.00,VWS V14.01,2013-05-28 07:21:00,
2013-05-28 03:26:00,37.5,29.0,30.27,NE,45,0.0,0.0,71,0.00,,---,0.00,VWS V14.01,2013-05-28 07:26:00,
2013-05-28 03:31:00,37.4,28.9,30.27,NE,45,0.0,0.0,71,0.00,,---,0.00,VWS V14.01,2013-05-28 07:31:00,
2013-05-28 03:36:00,37.2,28.7,30.27,NE,45,0.0,0.0,71,0.00,,---,0.00,VWS V14.01,2013-05-28 07:36:00,
2013-05-28 03:41:00,37.2,28.7,30.27,NE,45,0.0,0.0,71,0.00,,---,0.00,VWS V14.01,2013-05-28 07:41:00,
2013-05-28 03:46:00,37.2,29.0,30.27,NE,45,0.0,0.0,72,0.00,,---,0.00,VWS V14.01,2013-05-28 07:46:00,
2013-05-28 03:51:00,37.2,29.0,30.27,NE,45,0.0,0.0,72,0.00,,---,0.00,VWS V14.01,2013-05-28 07:51:00,
2013-05-28 03:56:00,37.0,28.8,30.27,NE,45,0.0,0.0,72,0.00,,---,0.00,VWS V14.01,2013-05-28 07:56:00,
2013-05-28 04:01:00,37.0,28.8,30.27,NE,45,0.0,0.0,72,0.00,,---,0.00,VWS V14.01,2013-05-28 08:01:00,
2013-05-28 04:06:00,37.0,28.8,30.27,NE,45,0.0,0.0,72,0.00,,---,0.00,VWS V14.01,2013-05-28 08:06:00,
2013-05-28 04:11:00,37.0,28.8,30.28,NE,45,0.0,0.0,72,0.00,,---,0.00,VWS V14.01,2013-05-28 08:11:00,
2013-05-28 04:16:00,36.6,28.4,30.27,NE,45,0.0,0.0,72,0.00,,---,0.00,VWS V14.01,2013-05-28 08:16:00,
2013-05-28 04:21:00,36.6,28.4,30.28,NE,45,0.0,0.0,72,0.00,,---,0.00,VWS V14.01,2013-05-28 08:21:00,
2013-05-28 04:26:00,36.6,28.8,30.28,NE,45,0.0,0.0,73,0.00,,---,0.00,VWS V14.01,2013-05-28 08:26:00,
2013-05-28 04:31:00,36.5,28.7,30.27,NE,45,0.0,0.0,73,0.00,,---,0.00,VWS V14.01,2013-05-28 08:31:00,
2013-05-28 04:36:00,36.5,28.7,30.28,NE,45,0.0,0.0,73,0.00,,---,0.00,VWS V14.01,2013-05-28 08:36:00,
2013-05-28 04:41:00,36.5,28.7,30.28,NE,45,0.0,0.0,73,0.00,,---,0.00,VWS V14.01,2013-05-28 08:41:00,
2013-05-28 04:46:00,36.5,28.7,30.28,NE,45,0.0,0.0,73,0.00,,---,0.00,VWS V14.01,2013-05-28 08:46:00,
2013-05-28 04:51:00,36.3,28.5,30.28,NE,45,0.0,0.0,73,0.00,,---,0.00,VWS V14.01,2013-05-28 08:51:00,
2013-05-28 04:56:00,36.3,28.5,30.28,NE,45,0.0,0.0,73,0.00,,---,0.00,VWS V14.01,2013-05-28 08:56:00,
2013-05-28 05:01:00,36.3,28.5,30.28,NE,45,0.0,0.0,73,0.00,,---,0.00,VWS V14.01,2013-05-28 09:01:00,
2013-05-28 05:06:00,36.3,28.5,30.28,NE,45,0.0,0.0,73,0.00,,---,0.00,VWS V14.01,2013-05-28 09:06:00,
2013-05-28 05:11:00,36.1,28.3,30.29,NE,45,0.0,0.0,73,0.00,,---,0.00,VWS V14.01,2013-05-28 09:11:00,
2013-05-28 05:16:00,36.1,28.6,30.29,NE,45,0.0,0.0,74,0.00,,---,0.00,VWS V14.01,2013-05-28 09:16:00,
2013-05-28 05:21:00,35.9,28.4,30.29,NE,45,0.0,0.0,74,0.00,,---,0.00,VWS V14.01,2013-05-28 09:21:00,
2013-05-28 05:26:00,35.9,28.4,30.29,NE,45,0.0,0.0,74,0.00,,---,0.00,VWS V14.01,2013-05-28 09:26:00,
2013-05-28 05:31:00,35.7,28.2,30.29,NE,45,0.0,0.0,74,0.00,,---,0.00,VWS V14.01,2013-05-28 09:31:00,
2013-05-28 05:36:00,35.7,28.2,30.29,NE,45,0.0,0.0,74,0.00,,---,0.00,VWS V14.01,2013-05-28 09:36:00,
2013-05-28 05:41:00,35.7,28.2,30.29,NE,45,0.0,0.0,74,0.00,,---,0.00,VWS V14.01,2013-05-28 09:41:00,
2013-05-28 05:46:00,35.7,28.2,30.29,NE,45,0.0,0.0,74,0.00,,---,0.00,VWS V14.01,2013-05-28 09:46:00,
2013-05-28 05:51:00,35.7,28.2,30.29,NE,45,0.0,0.0,74,0.00,,---,0.00,VWS V14.01,2013-05-28 09:51:00,
2013-05-28 05:56:00,35.7,28.2,30.29,ENE,68,0.0,0.0,74,0.00,,---,0.00,VWS V14.01,2013-05-28 09:56:00,
2013-05-28 06:01:00,35.7,28.2,30.29,ENE,68,0.0,0.0,74,0.00,,---,0.00,VWS V14.01,2013-05-28 10:01:00,
2013-05-28 06:06:00,35.6,28.1,30.29,ENE,68,0.0,0.0,74,0.00,,---,0.00,VWS V14.01,2013-05-28 10:06:00,
2013-05-28 06:11:00,35.7,28.6,30.29,ENE,68,0.0,0.0,75,0.00,,---,0.00,VWS V14.01,2013-05-28 10:11:00,
2013-05-28 06:16:00,35.7,28.6,30.29,ENE,68,0.0,0.0,75,0.00,,---,0.00,VWS V14.01,2013-05-28 10:16:00,
2013-05-28 06:21:00,35.7,28.6,30.29,ENE,68,0.0,0.0,75,0.00,,---,0.00,VWS V14.01,2013-05-28 10:21:00,
2013-05-28 06:26:00,35.7,28.6,30.29,ENE,68,0.0,0.0,75,0.00,,---,0.00,VWS V14.01,2013-05-28 10:26:00,
2013-05-28 06:31:00,35.7,28.6,30.29,ENE,68,0.0,0.0,75,0.00,,---,0.00,VWS V14.01,2013-05-28 10:31:00,
2013-05-28 06:36:00,35.7,28.6,30.29,ENE,68,0.0,0.0,75,0.00,,---,0.00,VWS V14.01,2013-05-28 10:36:00,
2013-05-28 06:41:00,35.7,28.6,30.29,ENE,68,0.0,0.0,75,0.00,,---,0.00,VWS V14.01,2013-05-28 10:41:00,
2013-05-28 06:46:00,35.7,28.6,30.29,ENE,68,0.0,0.0,75,0.00,,---,0.00,VWS V14.01,2013-05-28 10:46:00,
2013-05-28 06:51:00,35.9,28.8,30.29,ENE,68,0.0,0.0,75,0.00,,---,0.00,VWS V14.01,2013-05-28 10:51:00,
2013-05-28 06:56:00,35.9,29.1,30.29,ENE,68,0.0,0.0,76,0.00,,---,0.00,VWS V14.01,2013-05-28 10:56:00,
2013-05-28 07:01:00,35.9,29.1,30.29,ENE,68,0.0,0.0,76,0.00,,---,0.00,VWS V14.01,2013-05-28 11:01:00,
2013-05-28 07:06:00,35.9,29.1,30.29,ENE,68,0.0,0.0,76,0.00,,---,0.00,VWS V14.01,2013-05-28 11:06:00,
2013-05-28 07:11:00,35.9,29.1,30.29,ENE,68,0.0,0.0,76,0.00,,---,0.00,VWS V14.01,2013-05-28 11:11:00,
2013-05-28 07:16:00,36.1,29.3,30.29,ENE,68,0.0,0.0,76,0.00,,---,0.00,VWS V14.01,2013-05-28 11:16:00,
2013-05-28 07:21:00,36.1,29.3,30.28,ENE,68,0.0,0.0,76,0.00,,---,0.00,VWS V14.01,2013-05-28 11:21:00,
2013-05-28 07:26:00,36.3,29.5,30.28,ENE,68,0.0,0.0,76,0.00,,---,0.00,VWS V14.01,2013-05-28 11:26:00,
2013-05-28 07:31:00,36.5,29.7,30.28,ENE,68,0.0,0.0,76,0.00,,---,0.00,VWS V14.01,2013-05-28 11:31:00,
2013-05-28 07:36:00,36.8,30.3,30.28,ENE,68,0.0,0.0,77,0.00,,---,0.00,VWS V14.01,2013-05-28 11:36:00,
2013-05-28 07:41:00,37.0,30.5,30.28,ENE,68,0.0,0.0,77,0.00,,---,0.00,VWS V14.01,2013-05-28 11:41:00,
2013-05-28 07:46:00,37.2,31.0,30.28,ENE,68,0.0,0.0,78,0.00,,---,0.00,VWS V14.01,2013-05-28 11:46:00,
2013-05-28 07:51:00,37.7,32.1,30.28,ENE,68,0.0,0.0,80,0.00,,---,0.00,VWS V14.01,2013-05-28 11:51:00,
2013-05-28 07:56:00,38.1,32.5,30.28,ENE,68,0.0,0.0,80,0.00,,---,0.00,VWS V14.01,2013-05-28 11:56:00,
2013-05-28 08:01:00,38.4,32.8,30.27,ENE,68,0.0,0.0,80,0.00,,---,0.00,VWS V14.01,2013-05-28 12:01:00,
2013-05-28 08:06:00,38.8,33.2,30.27,ENE,68,0.0,0.0,80,0.00,,---,0.00,VWS V14.01,2013-05-28 12:06:00,
2013-05-28 08:11:00,39.0,33.4,30.27,ENE,68,0.0,0.0,80,0.00,,---,0.00,VWS V14.01,2013-05-28 12:11:00,
2013-05-28 08:16:00,39.3,33.7,30.27,ENE,68,0.0,0.0,80,0.00,,---,0.00,VWS V14.01,2013-05-28 12:16:00,
2013-05-28 08:21:00,39.9,34.2,30.26,ENE,68,0.0,0.0,80,0.00,,---,0.00,VWS V14.01,2013-05-28 12:21:00,
2013-05-28 08:26:00,40.2,34.5,30.26,ENE,68,0.0,0.0,80,0.00,,---,0.00,VWS V14.01,2013-05-28 12:26:00,
2013-05-28 08:31:00,40.6,34.9,30.26,ENE,68,0.0,0.0,80,0.00,,---,0.00,VWS V14.01,2013-05-28 12:31:00,
2013-05-28 08:36:00,41.1,35.7,30.26,ENE,68,0.0,0.0,81,0.00,,---,0.00,VWS V14.01,2013-05-28 12:36:00,
2013-05-28 08:41:00,41.7,36.3,30.26,ENE,68,0.0,0.0,81,0.00,,---,0.00,VWS V14.01,2013-05-28 12:41:00,
2013-05-28 08:46:00,42.0,36.6,30.26,NE,45,0.0,0.0,81,0.00,,---,0.00,VWS V14.01,2013-05-28 12:46:00,
2013-05-28 08:51:00,42.8,37.4,30.26,NNE,22,0.0,0.0,81,0.00,,---,0.00,VWS V14.01,2013-05-28 12:51:00,
2013-05-28 08:56:00,43.3,37.9,30.26,NNE,22,0.0,0.0,81,0.00,,---,0.00,VWS V14.01,2013-05-28 12:56:00,
2013-05-28 09:01:00,43.8,38.0,30.26,NNE,22,0.0,0.0,80,0.00,,---,0.00,VWS V14.01,2013-05-28 13:01:00,
2013-05-28 09:06:00,44.4,38.6,30.26,North,0,0.0,0.0,80,0.00,,---,0.00,VWS V14.01,2013-05-28 13:06:00,
2013-05-28 09:11:00,44.9,39.1,30.26,North,0,0.0,0.0,80,0.00,,---,0.00,VWS V14.01,2013-05-28 13:11:00,
2013-05-28 09:16:00,45.3,39.5,30.26,North,0,0.0,0.0,80,0.00,,---,0.00,VWS V14.01,2013-05-28 13:16:00,
2013-05-28 09:21:00,46.2,40.4,30.25,North,0,0.0,0.0,80,0.00,,---,0.00,VWS V14.01,2013-05-28 13:21:00,
2013-05-28 09:26:00,46.7,40.5,30.26,North,0,0.0,0.0,79,0.00,,---,0.00,VWS V14.01,2013-05-28 13:26:00,
2013-05-28 09:31:00,47.1,40.6,30.25,North,0,0.0,0.0,78,0.00,,---,0.00,VWS V14.01,2013-05-28 13:31:00,
2013-05-28 09:36:00,48.0,41.2,30.25,North,0,0.0,0.0,77,0.00,,---,0.00,VWS V14.01,2013-05-28 13:36:00,
2013-05-28 09:41:00,48.5,41.6,30.25,NW,315,0.0,0.0,77,0.00,,---,0.00,VWS V14.01,2013-05-28 13:41:00,
2013-05-28 09:46:00,49.2,42.3,30.25,NW,315,0.0,0.0,77,0.00,,---,0.00,VWS V14.01,2013-05-28 13:46:00,
2013-05-28 09:51:00,50.1,42.5,30.26,NW,315,0.0,0.0,75,0.00,,---,0.00,VWS V14.01,2013-05-28 13:51:00,
2013-05-28 09:56:00,50.7,42.7,30.26,NW,315,0.0,0.0,74,0.00,,---,0.00,VWS V14.01,2013-05-28 13:56:00,
2013-05-28 10:01:00,51.2,42.5,30.26,NNW,338,0.0,0.0,72,0.00,,---,0.00,VWS V14.01,2013-05-28 14:01:00,
2013-05-28 10:06:00,51.8,42.3,30.26,NNW,338,0.0,0.0,70,0.00,,---,0.00,VWS V14.01,2013-05-28 14:06:00,
2013-05-28 10:10:00,52.1,42.6,30.26,SE,135,0.0,0.0,70,0.00,,---,0.00,VWS V14.01,2013-05-28 14:10:00,
2013-05-28 10:15:00,52.5,42.6,30.26,South,180,4.0,4.0,69,0.00,,---,0.00,VWS V14.01,2013-05-28 14:15:00,
2013-05-28 10:20:00,53.2,42.2,30.26,SE,135,0.0,0.0,66,0.00,,---,0.00,VWS V14.01,2013-05-28 14:20:00,
2013-05-28 10:25:00,53.4,41.9,30.26,SE,135,0.0,0.0,65,0.00,,---,0.00,VWS V14.01,2013-05-28 14:25:00,
2013-05-28 10:30:00,53.7,41.8,30.26,SE,135,0.0,0.0,64,0.00,,---,0.00,VWS V14.01,2013-05-28 14:30:00,
2013-05-28 10:35:00,54.3,42.0,30.26,SE,135,0.0,0.0,63,0.00,,---,0.00,VWS V14.01,2013-05-28 14:35:00,
2013-05-28 10:40:00,55.0,42.2,30.26,SE,135,0.0,0.0,62,0.00,,---,0.00,VWS V14.01,2013-05-28 14:40:00,
2013-05-28 10:45:00,55.5,41.9,30.26,NNW,338,0.0,0.0,60,0.00,,---,0.00,VWS V14.01,2013-05-28 14:45:00,
2013-05-28 10:50:00,56.4,43.1,30.26,SE,135,0.0,0.0,61,0.00,,---,0.00,VWS V14.01,2013-05-28 14:50:00,
2013-05-28 10:55:00,57.0,42.8,30.25,NW,315,0.0,0.0,59,0.00,,---,0.00,VWS V14.01,2013-05-28 14:55:00,
2013-05-28 11:00:00,57.7,43.0,30.26,NW,315,0.0,0.0,58,0.00,,---,0.00,VWS V14.01,2013-05-28 15:00:00,
2013-05-28 11:05:00,58.2,42.1,30.25,NW,315,0.0,0.0,55,0.00,,---,0.00,VWS V14.01,2013-05-28 15:05:00,
2013-05-28 11:10:00,58.8,43.2,30.26,SE,135,0.0,0.0,56,0.00,,---,0.00,VWS V14.01,2013-05-28 15:10:00,
2013-05-28 11:15:00,58.8,43.2,30.25,NW,315,0.0,0.0,56,0.00,,---,0.00,VWS V14.01,2013-05-28 15:15:00,
2013-05-28 11:20:00,59.7,44.5,30.25,East,90,0.0,0.0,57,0.00,,---,0.00,VWS V14.01,2013-05-28 15:20:00,
2013-05-28 11:25:00,60.4,45.1,30.25,ESE,112,0.0,0.0,57,0.00,,---,0.00,VWS V14.01,2013-05-28 15:25:00,
2013-05-28 11:30:00,60.9,45.6,30.25,SE,135,0.0,0.0,57,0.00,,---,0.00,VWS V14.01,2013-05-28 15:30:00,
2013-05-28 11:35:00,61.5,45.7,30.25,SE,135,0.0,0.0,56,0.00,,---,0.00,VWS V14.01,2013-05-28 15:35:00,
2013-05-28 11:40:00,62.2,46.3,30.25,SE,135,0.0,0.0,56,0.00,,---,0.00,VWS V14.01,2013-05-28 15:40:00,
2013-05-28 11:45:00,62.6,46.7,30.24,SE,135,0.0,0.0,56,0.00,,---,0.00,VWS V14.01,2013-05-28 15:45:00,
2013-05-28 11:50:00,63.1,46.2,30.24,SE,135,0.0,0.0,54,0.00,,---,0.00,VWS V14.01,2013-05-28 15:50:00,
2013-05-28 11:55:00,63.3,46.9,30.25,WNW,292,0.0,0.0,55,0.00,,---,0.00,VWS V14.01,2013-05-28 15:55:00,
2013-05-28 12:00:00,63.6,45.2,30.25,SE,135,0.0,0.0,51,0.00,,---,0.00,VWS V14.01,2013-05-28 16:00:00,
2013-05-28 12:05:00,64.2,46.7,30.24,SE,135,0.0,0.0,53,0.00,,---,0.00,VWS V14.01,2013-05-28 16:05:00,
2013-05-28 12:10:00,64.5,46.5,30.24,NNW,338,0.0,0.0,52,0.00,,---,0.00,VWS V14.01,2013-05-28 16:10:00,
2013-05-28 12:15:00,64.9,46.4,30.24,NNW,338,0.0,0.0,51,0.00,,---,0.00,VWS V14.01,2013-05-28 16:15:00,
2013-05-28 12:20:00,65.1,46.5,30.23,SE,135,0.0,0.0,51,0.00,,---,0.00,VWS V14.01,2013-05-28 16:20:00,
2013-05-28 12:25:00,65.6,47.0,30.23,SE,135,0.0,0.0,51,0.00,,---,0.00,VWS V14.01,2013-05-28 16:25:00,
2013-05-28 12:30:00,66.0,46.8,30.23,SE,135,0.0,0.0,50,0.00,,---,0.00,VWS V14.01,2013-05-28 16:30:00,
2013-05-28 12:35:00,66.9,47.7,30.22,NNW,338,0.0,0.0,50,0.00,,---,0.00,VWS V14.01,2013-05-28 16:35:00,
2013-05-28 12:40:00,67.2,46.9,30.22,North,0,0.0,0.0,48,0.00,,---,0.00,VWS V14.01,2013-05-28 16:40:00,
2013-05-28 12:45:00,67.6,46.1,30.22,North,0,0.0,0.0,46,0.00,,---,0.00,VWS V14.01,2013-05-28 16:45:00,
2013-05-28 12:50:00,67.6,46.1,30.22,NNE,22,0.0,0.0,46,0.00,,---,0.00,VWS V14.01,2013-05-28 16:50:00,
2013-05-28 12:55:00,67.8,46.9,30.22,ENE,68,0.0,0.0,47,0.00,,---,0.00,VWS V14.01,2013-05-28 16:55:00,
2013-05-28 13:00:00,68.5,47.5,30.22,ENE,68,0.0,0.0,47,0.00,,---,0.00,VWS V14.01,2013-05-28 17:00:00,
2013-05-28 13:05:00,68.7,47.7,30.22,SE,135,0.0,0.0,47,0.00,,---,0.00,VWS V14.01,2013-05-28 17:05:00,
2013-05-28 13:10:00,69.0,48.0,30.22,SE,135,0.0,0.0,47,0.00,,---,0.00,VWS V14.01,2013-05-28 17:10:00,
2013-05-28 13:15:00,69.4,48.3,30.22,SE,135,0.0,0.0,47,0.00,,---,0.00,VWS V14.01,2013-05-28 17:15:00,
2013-05-28 13:20:00,69.6,48.5,30.22,SE,135,3.8,3.8,47,0.00,,---,0.00,VWS V14.01,2013-05-28 17:20:00,
2013-05-28 13:25:00,69.6,47.9,30.22,SE,135,0.0,0.0,46,0.00,,---,0.00,VWS V14.01,2013-05-28 17:25:00,
2013-05-28 13:30:00,69.8,48.7,30.21,SE,135,0.0,0.0,47,0.00,,---,0.00,VWS V14.01,2013-05-28 17:30:00,
2013-05-28 13:35:00,69.9,48.2,30.22,SE,135,0.0,0.0,46,0.00,,---,0.00,VWS V14.01,2013-05-28 17:35:00,
2013-05-28 13:40:00,69.9,47.6,30.21,SE,135,0.0,0.0,45,0.00,,---,0.00,VWS V14.01,2013-05-28 17:40:00,
2013-05-28 13:45:00,69.8,47.5,30.21,SE,135,0.0,0.0,45,0.00,,---,0.00,VWS V14.01,2013-05-28 17:45:00,
2013-05-28 13:50:00,69.6,47.3,30.21,SE,135,0.0,0.0,45,0.00,,---,0.00,VWS V14.01,2013-05-28 17:50:00,
2013-05-28 13:55:00,69.6,47.9,30.21,SE,135,0.0,0.0,46,0.00,,---,0.00,VWS V14.01,2013-05-28 17:55:00,
2013-05-28 14:00:00,69.6,47.9,30.21,SE,135,0.0,0.0,46,0.00,,---,0.00,VWS V14.01,2013-05-28 18:00:00,
2013-05-28 14:05:00,69.8,48.1,30.21,SE,135,0.0,0.0,46,0.00,,---,0.00,VWS V14.01,2013-05-28 18:05:00,
2013-05-28 14:10:00,69.9,48.2,30.21,SE,135,0.0,0.0,46,0.00,,---,0.00,VWS V14.01,2013-05-28 18:10:00,
2013-05-28 14:15:00,70.3,48.6,30.21,SE,135,0.0,0.0,46,0.00,,---,0.00,VWS V14.01,2013-05-28 18:15:00,
2013-05-28 14:20:00,70.3,48.0,30.20,SE,135,3.1,3.1,45,0.00,,---,0.00,VWS V14.01,2013-05-28 18:20:00,
2013-05-28 14:25:00,70.5,48.2,30.21,SE,135,5.5,5.5,45,0.00,,---,0.00,VWS V14.01,2013-05-28 18:25:00,
2013-05-28 14:30:00,70.5,48.2,30.20,SSE,158,0.0,0.0,45,0.00,,---,0.00,VWS V14.01,2013-05-28 18:30:00,
2013-05-28 14:35:00,70.7,48.3,30.20,SE,135,0.0,0.0,45,0.00,,---,0.00,VWS V14.01,2013-05-28 18:35:00,
2013-05-28 14:40:00,70.8,48.4,30.20,SE,135,0.0,0.0,45,0.00,,---,0.00,VWS V14.01,2013-05-28 18:40:00,
2013-05-28 14:45:00,70.8,47.8,30.20,SSE,158,0.0,0.0,44,0.00,,---,0.00,VWS V14.01,2013-05-28 18:45:00,
2013-05-28 14:50:00,70.8,48.4,30.20,SE,135,0.0,0.0,45,0.00,,---,0.00,VWS V14.01,2013-05-28 18:50:00,
2013-05-28 14:55:00,71.2,48.8,30.21,SE,135,0.0,0.0,45,0.00,,---,0.00,VWS V14.01,2013-05-28 18:55:00,
2013-05-28 15:00:00,71.4,49.0,30.20,South,180,0.0,0.0,45,0.00,,---,0.00,VWS V14.01,2013-05-28 19:00:00,
2013-05-28 15:05:00,71.7,49.2,30.20,SE,135,3.3,3.3,45,0.00,,---,0.00,VWS V14.01,2013-05-28 19:05:00,
2013-05-28 15:10:00,71.7,48.7,30.20,SE,135,0.0,0.0,44,0.00,,---,0.00,VWS V14.01,2013-05-28 19:10:00,
2013-05-28 15:15:00,71.7,48.7,30.20,SE,135,0.0,0.0,44,0.00,,---,0.00,VWS V14.01,2013-05-28 19:15:00,
2013-05-28 15:20:00,71.9,48.8,30.20,SE,135,0.0,0.0,44,0.00,,---,0.00,VWS V14.01,2013-05-28 19:20:00,
2013-05-28 15:25:00,71.9,49.4,30.20,SE,135,0.0,0.0,45,0.00,,---,0.00,VWS V14.01,2013-05-28 19:25:00,
2013-05-28 15:30:00,71.9,49.4,30.20,SE,135,1.1,1.1,45,0.00,,---,0.00,VWS V14.01,2013-05-28 19:30:00,
2013-05-28 15:35:00,71.9,48.2,30.20,SE,135,0.0,0.0,43,0.00,,---,0.00,VWS V14.01,2013-05-28 19:35:00,
2013-05-28 15:40:00,71.7,48.0,30.20,SE,135,0.0,0.0,43,0.00,,---,0.00,VWS V14.01,2013-05-28 19:40:00,
2013-05-28 15:45:00,71.4,47.8,30.20,SE,135,0.0,0.0,43,0.00,,---,0.00,VWS V14.01,2013-05-28 19:45:00,
2013-05-28 15:50:00,71.4,47.8,30.20,SE,135,0.0,0.0,43,0.00,,---,0.00,VWS V14.01,2013-05-28 19:50:00,
2013-05-28 15:55:00,71.4,47.8,30.19,SE,135,0.0,0.0,43,0.00,,---,0.00,VWS V14.01,2013-05-28 19:55:00,
2013-05-28 16:00:00,71.7,48.0,30.19,SE,135,4.2,4.2,43,0.00,,---,0.00,VWS V14.01,2013-05-28 20:00:00,
2013-05-28 16:05:00,71.6,47.9,30.20,SE,135,0.0,0.0,43,0.00,,---,0.00,VWS V14.01,2013-05-28 20:05:00,
2013-05-28 16:10:00,71.4,47.8,30.19,SE,135,0.0,0.0,43,0.00,,---,0.00,VWS V14.01,2013-05-28 20:10:00,
2013-05-28 16:15:00,71.2,47.0,30.19,SE,135,0.0,0.0,42,0.00,,---,0.00,VWS V14.01,2013-05-28 20:15:00,
2013-05-28 16:20:00,70.8,46.6,30.19,SE,135,0.0,0.0,42,0.00,,---,0.00,VWS V14.01,2013-05-28 20:20:00,
2013-05-28 16:25:00,70.8,46.6,30.19,SW,225,0.0,0.0,42,0.00,,---,0.00,VWS V14.01,2013-05-28 20:25:00,
2013-05-28 16:30:00,70.7,45.9,30.19,SE,135,0.0,0.0,41,0.00,,---,0.00,VWS V14.01,2013-05-28 20:30:00,
2013-05-28 16:35:00,70.5,45.7,30.19,SE,135,0.0,0.0,41,0.00,,---,0.00,VWS V14.01,2013-05-28 20:35:00,
2013-05-28 16:40:00,70.5,45.7,30.19,SE,135,0.0,0.0,41,0.00,,---,0.00,VWS V14.01,2013-05-28 20:40:00,
2013-05-28 16:45:00,70.1,45.3,30.19,SE,135,6.4,6.4,41,0.00,,---,0.00,VWS V14.01,2013-05-28 20:45:00,
2013-05-28 16:50:00,69.9,45.2,30.19,SE,135,0.0,0.0,41,0.00,,---,0.00,VWS V14.01,2013-05-28 20:50:00,
2013-05-28 16:55:00,69.4,44.1,30.18,SE,135,0.0,0.0,40,0.00,,---,0.00,VWS V14.01,2013-05-28 20:55:00,
2013-05-28 17:00:00,68.7,43.4,30.19,SE,135,0.0,0.0,40,0.00,,---,0.00,VWS V14.01,2013-05-28 21:00:00,
2013-05-28 17:05:00,68.5,43.2,30.19,SE,135,0.0,0.0,40,0.00,,---,0.00,VWS V14.01,2013-05-28 21:05:00,
2013-05-28 17:10:00,68.3,43.7,30.19,SE,135,4.4,4.4,41,0.00,,---,0.00,VWS V14.01,2013-05-28 21:10:00,
2013-05-28 17:15:00,67.8,43.3,30.19,SSE,158,0.0,0.0,41,0.00,,---,0.00,VWS V14.01,2013-05-28 21:15:00,
2013-05-28 17:20:00,67.6,43.1,30.19,SE,135,0.0,0.0,41,0.00,,---,0.00,VWS V14.01,2013-05-28 21:20:00,
2013-05-28 17:25:00,67.6,43.1,30.19,SE,135,0.0,0.0,41,0.00,,---,0.00,VWS V14.01,2013-05-28 21:25:00,
2013-05-28 17:30:00,67.6,43.1,30.19,SE,135,2.0,2.0,41,0.00,,---,0.00,VWS V14.01,2013-05-28 21:30:00,
2013-05-28 17:35:00,67.4,42.9,30.18,SE,135,0.0,0.0,41,0.00,,---,0.00,VWS V14.01,2013-05-28 21:35:00,
2013-05-28 17:40:00,67.2,42.7,30.18,SE,135,0.0,0.0,41,0.00,,---,0.00,VWS V14.01,2013-05-28 21:40:00,
2013-05-28 17:45:00,67.1,42.6,30.18,SE,135,0.0,0.0,41,0.00,,---,0.00,VWS V14.01,2013-05-28 21:45:00,
2013-05-28 17:50:00,66.9,42.5,30.18,SE,135,2.0,2.0,41,0.00,,---,0.00,VWS V14.01,2013-05-28 21:50:00,
2013-05-28 17:55:00,66.9,41.8,30.18,SE,135,0.0,0.0,40,0.00,,---,0.00,VWS V14.01,2013-05-28 21:55:00,
2013-05-28 18:00:00,66.5,42.1,30.18,SE,135,0.0,0.0,41,0.00,,---,0.00,VWS V14.01,2013-05-28 22:00:00,
2013-05-28 18:05:00,66.3,42.5,30.18,SE,135,0.0,0.0,42,0.00,,---,0.00,VWS V14.01,2013-05-28 22:05:00,
2013-05-28 18:10:00,66.3,42.5,30.18,SE,135,6.9,6.9,42,0.00,,---,0.00,VWS V14.01,2013-05-28 22:10:00,
2013-05-28 18:15:00,66.0,41.7,30.17,SE,135,7.1,7.1,41,0.00,,---,0.00,VWS V14.01,2013-05-28 22:15:00,
2013-05-28 18:20:00,65.8,41.5,30.17,SE,135,7.3,7.3,41,0.00,,---,0.00,VWS V14.01,2013-05-28 22:20:00,
2013-05-28 18:25:00,65.8,42.1,30.17,SE,135,0.0,0.0,42,0.00,,---,0.00,VWS V14.01,2013-05-28 22:25:00,
2013-05-28 18:30:00,65.4,42.3,30.17,SE,135,0.0,0.0,43,0.00,,---,0.00,VWS V14.01,2013-05-28 22:30:00,
2013-05-28 18:35:00,65.3,42.2,30.17,SE,135,0.0,0.0,43,0.00,,---,0.00,VWS V14.01,2013-05-28 22:35:00,
2013-05-28 18:40:00,65.1,41.5,30.17,SE,135,0.0,0.0,42,0.00,,---,0.00,VWS V14.01,2013-05-28 22:40:00,
2013-05-28 18:45:00,64.9,41.3,30.17,SE,135,5.8,5.8,42,0.00,,---,0.00,VWS V14.01,2013-05-28 22:45:00,
2013-05-28 18:50:00,64.7,41.7,30.17,SE,135,0.0,0.0,43,0.00,,---,0.00,VWS V14.01,2013-05-28 22:50:00,
2013-05-28 18:55:00,64.7,42.3,30.17,SE,135,0.0,0.0,44,0.00,,---,0.00,VWS V14.01,2013-05-28 22:55:00,
2013-05-28 19:00:00,64.5,41.5,30.17,SE,135,0.0,0.0,43,0.00,,---,0.00,VWS V14.01,2013-05-28 23:00:00,
2013-05-28 19:05:00,64.2,41.8,30.17,SE,135,0.0,0.0,44,0.00,,---,0.00,VWS V14.01,2013-05-28 23:05:00,
2013-05-28 19:10:00,64.2,41.8,30.17,SE,135,0.0,0.0,44,0.00,,---,0.00,VWS V14.01,2013-05-28 23:10:00,
2013-05-28 19:15:00,64.0,42.3,30.17,SE,135,0.0,0.0,45,0.00,,---,0.00,VWS V14.01,2013-05-28 23:15:00,
2013-05-28 19:20:00,64.0,42.3,30.17,SE,135,0.0,0.0,45,0.00,,---,0.00,VWS V14.01,2013-05-28 23:20:00,
2013-05-28 19:25:00,64.0,42.8,30.17,SE,135,0.0,0.0,46,0.00,,---,0.00,VWS V14.01,2013-05-28 23:25:00,
2013-05-28 19:30:00,63.6,42.5,30.17,SE,135,0.0,0.0,46,0.00,,---,0.00,VWS V14.01,2013-05-28 23:30:00,
2013-05-28 19:35:00,63.5,42.4,30.17,SE,135,0.0,0.0,46,0.00,,---,0.00,VWS V14.01,2013-05-28 23:35:00,
2013-05-28 19:40:00,63.5,42.4,30.17,SE,135,0.0,0.0,46,0.00,,---,0.00,VWS V14.01,2013-05-28 23:40:00,
2013-05-28 19:45:00,63.1,41.4,30.17,SE,135,0.0,0.0,45,0.00,,---,0.00,VWS V14.01,2013-05-28 23:45:00,
2013-05-28 19:50:00,63.1,41.4,30.17,SE,135,0.0,0.0,45,0.00,,---,0.00,VWS V14.01,2013-05-28 23:50:00,
2013-05-28 19:55:00,62.7,41.1,30.17,SE,135,0.0,0.0,45,0.00,,---,0.00,VWS V14.01,2013-05-28 23:55:00,
2013-05-28 20:00:00,62.6,41.0,30.17,SE,135,0.0,0.0,45,0.00,,---,0.00,VWS V14.01,2013-05-29 00:00:00,
2013-05-28 20:05:00,62.4,40.8,30.17,SE,135,0.0,0.0,45,0.00,,---,0.00,VWS V14.01,2013-05-29 00:05:00,
2013-05-28 20:10:00,62.2,40.6,30.17,West,270,0.0,0.0,45,0.00,,---,0.00,VWS V14.01,2013-05-29 00:10:00,
2013-05-28 20:15:00,62.0,41.0,30.17,SSW,202,0.0,0.0,46,0.00,,---,0.00,VWS V14.01,2013-05-29 00:15:00,
2013-05-28 20:20:00,61.8,40.8,30.17,SSE,158,0.0,0.0,46,0.00,,---,0.00,VWS V14.01,2013-05-29 00:20:00,
2013-05-28 20:25:00,61.7,40.2,30.17,SE,135,0.0,0.0,45,0.00,,---,0.00,VWS V14.01,2013-05-29 00:25:00,
2013-05-28 20:30:00,61.5,40.0,30.16,SE,135,0.0,0.0,45,0.00,,---,0.00,VWS V14.01,2013-05-29 00:30:00,
2013-05-28 20:35:00,61.3,40.4,30.16,SE,135,0.0,0.0,46,0.00,,---,0.00,VWS V14.01,2013-05-29 00:35:00,
2013-05-28 20:40:00,61.1,39.6,30.16,SE,135,0.0,0.0,45,0.00,,---,0.00,VWS V14.01,2013-05-29 00:40:00,
2013-05-28 20:45:00,60.9,39.4,30.16,SE,135,0.0,0.0,45,0.00,,---,0.00,VWS V14.01,2013-05-29 00:45:00,
2013-05-28 20:50:00,60.6,39.2,30.16,SE,135,0.0,0.0,45,0.00,,---,0.00,VWS V14.01,2013-05-29 00:50:00,
2013-05-28 20:55:00,60.6,39.2,30.16,SE,135,0.0,0.0,45,0.00,,---,0.00,VWS V14.01,2013-05-29 00:55:00,
2013-05-28 21:00:00,60.4,39.0,30.17,SE,135,0.0,0.0,45,0.00,,---,0.00,VWS V14.01,2013-05-29 01:00:00,
2013-05-28 21:05:00,60.4,39.5,30.17,SE,135,0.0,0.0,46,0.00,,---,0.00,VWS V14.01,2013-05-29 01:05:00,
2013-05-28 21:10:00,60.0,39.2,30.17,SE,135,0.0,0.0,46,0.00,,---,0.00,VWS V14.01,2013-05-29 01:10:00,
2013-05-28 21:15:00,59.9,39.1,30.17,SE,135,0.0,0.0,46,0.00,,---,0.00,VWS V14.01,2013-05-29 01:15:00,
2013-05-28 21:20:00,59.7,39.5,30.16,SE,135,0.0,0.0,47,0.00,,---,0.00,VWS V14.01,2013-05-29 01:20:00,
2013-05-28 21:25:00,59.5,39.3,30.17,SE,135,0.0,0.0,47,0.00,,---,0.00,VWS V14.01,2013-05-29 01:25:00,
2013-05-28 21:30:00,59.5,39.3,30.16,SE,135,0.0,0.0,47,0.00,,---,0.00,VWS V14.01,2013-05-29 01:30:00,
2013-05-28 21:35:00,59.3,39.1,30.17,SE,135,0.0,0.0,47,0.00,,---,0.00,VWS V14.01,2013-05-29 01:35:00,
2013-05-28 21:40:00,59.1,38.9,30.17,SE,135,0.0,0.0,47,0.00,,---,0.00,VWS V14.01,2013-05-29 01:40:00,
2013-05-28 21:45:00,58.8,39.2,30.17,SE,135,0.0,0.0,48,0.00,,---,0.00,VWS V14.01,2013-05-29 01:45:00,
2013-05-28 21:50:00,58.8,39.2,30.17,SE,135,0.0,0.0,48,0.00,,---,0.00,VWS V14.01,2013-05-29 01:50:00,
2013-05-28 21:55:00,58.8,39.2,30.17,SE,135,0.0,0.0,48,0.00,,---,0.00,VWS V14.01,2013-05-29 01:55:00,
2013-05-28 22:00:00,58.8,39.7,30.17,SE,135,0.0,0.0,49,0.00,,---,0.00,VWS V14.01,2013-05-29 02:00:00,
2013-05-28 22:05:00,58.8,39.7,30.17,SE,135,0.0,0.0,49,0.00,,---,0.00,VWS V14.01,2013-05-29 02:05:00,
2013-05-28 22:10:00,58.8,39.7,30.17,SE,135,0.0,0.0,49,0.00,,---,0.00,VWS V14.01,2013-05-29 02:10:00,
2013-05-28 22:15:00,58.8,40.2,30.17,SE,135,0.0,0.0,50,0.00,,---,0.00,VWS V14.01,2013-05-29 02:15:00,
2013-05-28 22:20:00,58.8,40.7,30.17,SE,135,0.0,0.0,51,0.00,,---,0.00,VWS V14.01,2013-05-29 02:20:00,
2013-05-28 22:25:00,58.8,41.2,30.17,SE,135,0.0,0.0,52,0.00,,---,0.00,VWS V14.01,2013-05-29 02:25:00,
2013-05-28 22:30:00,58.8,41.7,30.17,SE,135,0.0,0.0,53,0.00,,---,0.00,VWS V14.01,2013-05-29 02:30:00,
2013-05-28 22:35:00,58.6,42.0,30.17,SE,135,0.0,0.0,54,0.00,,---,0.00,VWS V14.01,2013-05-29 02:35:00,
2013-05-28 22:40:00,58.6,43.0,30.16,SE,135,0.0,0.0,56,0.00,,---,0.00,VWS V14.01,2013-05-29 02:40:00,
2013-05-28 22:45:00,58.4,42.8,30.16,NNE,22,0.0,0.0,56,0.00,,---,0.00,VWS V14.01,2013-05-29 02:45:00,
2013-05-28 22:50:00,58.4,43.2,30.17,NNE,22,0.0,0.0,57,0.00,,---,0.00,VWS V14.01,2013-05-29 02:50:00,
2013-05-28 22:55:00,58.4,43.7,30.16,SSE,158,0.0,0.0,58,0.00,,---,0.00,VWS V14.01,2013-05-29 02:55:00,
2013-05-28 23:00:00,58.2,43.5,30.16,SE,135,0.0,0.0,58,0.00,,---,0.00,VWS V14.01,2013-05-29 03:00:00,
2013-05-28 23:05:00,58.2,44.0,30.16,SSE,158,0.0,0.0,59,0.00,,---,0.00,VWS V14.01,2013-05-29 03:05:00,
2013-05-28 23:10:00,58.2,44.0,30.16,SE,135,0.0,0.0,59,0.00,,---,0.00,VWS V14.01,2013-05-29 03:10:00,
2013-05-28 23:15:00,58.1,44.3,30.16,SSE,158,0.0,0.0,60,0.00,,---,0.00,VWS V14.01,2013-05-29 03:15:00,
2013-05-28 23:20:00,58.1,44.3,30.16,WSW,248,0.0,0.0,60,0.00,,---,0.00,VWS V14.01,2013-05-29 03:20:00,
2013-05-28 23:25:00,58.1,45.2,30.16,SE,135,0.0,0.0,62,0.00,,---,0.00,VWS V14.01,2013-05-29 03:25:00,
2013-05-28 23:30:00,57.9,45.0,30.16,SE,135,0.0,0.0,62,0.00,,---,0.00,VWS V14.01,2013-05-29 03:30:00,
2013-05-28 23:35:00,57.9,45.0,30.15,SSE,158,0.0,0.0,62,0.00,,---,0.00,VWS V14.01,2013-05-29 03:35:00,
2013-05-28 23:40:00,57.9,45.4,30.16,SE,135,0.0,0.0,63,0.00,,---,0.00,VWS V14.01,2013-05-29 03:40:00,
2013-05-28 23:45:00,57.9,45.4,30.15,SE,135,0.0,0.0,63,0.00,,---,0.00,VWS V14.01,2013-05-29 03:45:00,
2013-05-28 23:50:00,57.9,45.4,30.15,SE,135,1.1,1.1,63,0.00,,---,0.00,VWS V14.01,2013-05-29 03:50:00,
2013-05-28 23:55:00,57.9,45.4,30.16,SE,135,0.0,0.0,63,0.00,,---,0.00,VWS V14.01,2013-05-29 03:55:00,